GFSNE_prec_precacc6_102.txt.gz
Total_Precipitation_Accumulation
0.09 0.05 0.03 0.03 0.02 0.02 0.02 0.01 0.01 0.01 0.00 0.00 0.00 0.00 0.00 0.00 0.00 0.00 0.00 0.00 0.00 0.00 0.00 0.00 0.00 0.00 0.00 0.00 0.00 0.00 0.00 0.00 0.00 0.00 0.00 0.00 0.00 0.00
0.08 0.05 0.02 0.01 0.01 0.01 0.03 0.04 0.05 0.04 0.02 0.00 0.00 0.00 0.01 0.02 0.02 0.01 0.00 0.00 0.00 0.00 0.00 0.00 0.00 0.00 0.00 0.00 0.00 0.00 0.00 0.00 0.00 0.00 0.00 0.00 0.00 0.00
0.02 0.01 0.00 0.00 0.01 0.00 0.00 0.01 0.01 0.02 0.01 0.00 0.00 0.00 0.01 0.01 0.00 0.00 0.00 0.00 0.00 0.00 0.00 0.00 0.00 0.00 0.00 0.00 0.00 0.00 0.00 0.00 0.00 0.00 0.00 0.00 0.00 0.00
0.02 0.01 0.00 0.00 0.00 0.00 0.01 0.01 0.00 0.00 0.00 0.00 0.00 0.00 0.00 0.00 0.00 0.00 0.00 0.00 0.00 0.00 0.00 0.00 0.00 0.00 0.00 0.00 0.00 0.00 0.00 0.00 0.00 0.00 0.00 0.00 0.00 0.00
0.02 0.02 0.01 0.00 0.00 0.00 0.00 0.00 0.00 0.00 0.00 0.00 0.00 0.01 0.00 0.00 0.01 0.00 0.00 0.00 0.00 0.00 0.00 0.00 0.00 0.00 0.00 0.00 0.00 0.00 0.00 0.00 0.00 0.00 0.00 0.00 0.00 0.00
0.00 0.00 0.00 0.00 0.00 0.00 0.00 0.00 0.01 0.02 0.03 0.03 0.01 0.01 0.02 0.01 0.03 0.01 0.01 0.01 0.01 0.01 0.01 0.01 0.01 0.01 0.00 0.00 0.00 0.00 0.00 0.00 0.00 0.00 0.00 0.00 0.00 0.01
0.00 0.00 0.00 0.00 0.00 0.00 0.01 0.03 0.07 0.07 0.06 0.07 0.06 0.04 0.03 0.04 0.05 0.06 0.09 0.05 0.07 0.10 0.10 0.09 0.09 0.08 0.06 0.06 0.04 0.03 0.03 0.02 0.01 0.00 0.00 0.01 0.03 0.04
0.01 0.02 0.01 0.01 0.00 0.00 0.00 0.00 0.01 0.03 0.04 0.05 0.07 0.06 0.03 0.05 0.05 0.07 0.08 0.08 0.06 0.06 0.07 0.07 0.08 0.12 0.13 0.08 0.06 0.03 0.02 0.02 0.02 0.02 0.03 0.05 0.08 0.11
0.04 0.04 0.05 0.04 0.05 0.01 0.01 0.02 0.01 0.05 0.09 0.09 0.04 0.05 0.13 0.23 0.26 0.24 0.24 0.27 0.25 0.19 0.16 0.16 0.23 0.28 0.28 0.23 0.19 0.06 0.03 0.03 0.04 0.05 0.07 0.08 0.10 0.12
0.05 0.03 0.03 0.03 0.07 0.06 0.02 0.05 0.09 0.16 0.20 0.24 0.35 0.42 0.44 0.33 0.25 0.23 0.19 0.18 0.20 0.26 0.28 0.29 0.24 0.24 0.23 0.20 0.21 0.09 0.04 0.05 0.08 0.10 0.12 0.13 0.15 0.16
0.09 0.10 0.09 0.06 0.16 0.10 0.06 0.08 0.13 0.19 0.25 0.15 0.09 0.07 0.06 0.04 0.03 0.02 0.05 0.08 0.13 0.15 0.17 0.18 0.16 0.16 0.17 0.13 0.11 0.13 0.08 0.05 0.04 0.06 0.09 0.12 0.14 0.15
0.15 0.14 0.18 0.18 0.21 0.18 0.16 0.15 0.10 0.10 0.08 0.06 0.05 0.05 0.05 0.05 0.07 0.03 0.02 0.03 0.05 0.06 0.05 0.06 0.06 0.05 0.06 0.06 0.06 0.06 0.04 0.03 0.01 0.01 0.01 0.02 0.03 0.04
0.10 0.05 0.01 0.01 0.00 0.00 0.00 0.00 0.00 0.00 0.01 0.01 0.00 0.00 0.00 0.00 0.00 0.01 0.00 0.01 0.01 0.01 0.01 0.01 0.01 0.02 0.02 0.02 0.02 0.01 0.01 0.01 0.01 0.01 0.00 0.01 0.01 0.01
0.01 0.00 0.00 0.00 0.00 0.00 0.00 0.00 0.00 0.00 0.00 0.00 0.00 0.00 0.00 0.00 0.00 0.00 0.00 0.00 0.00 0.01 0.00 0.00 0.00 0.01 0.01 0.01 0.01 0.01 0.00 0.00 0.00 0.00 0.00 0.00 0.00 0.00
0.00 0.00 0.00 0.00 0.00 0.00 0.00 0.00 0.00 0.00 0.00 0.00 0.00 0.01 0.01 0.01 0.00 0.00 0.00 0.00 0.00 0.00 0.00 0.00 0.00 0.00 0.00 0.01 0.01 0.00 0.00 0.00 0.00 0.00 0.00 0.00 0.00 0.00
0.00 0.00 0.00 0.00 0.00 0.00 0.00 0.00 0.00 0.00 0.00 0.01 0.01 0.01 0.00 0.00 0.00 0.00 0.00 0.00 0.00 0.00 0.00 0.00 0.00 0.00 0.00 0.00 0.00 0.00 0.00 0.00 0.00 0.00 0.00 0.00 0.00 0.00
0.00 0.00 0.00 0.00 0.00 0.00 0.00 0.00 0.00 0.00 0.00 0.00 0.00 0.00 0.00 0.00 0.00 0.00 0.00 0.00 0.00 0.00 0.00 0.00 0.00 0.00 0.00 0.00 0.00 0.00 0.00 0.00 0.00 0.00 0.00 0.00 0.00 0.00
0.00 0.00 0.00 0.00 0.00 0.00 0.00 0.00 0.00 0.00 0.00 0.00 0.00 0.00 0.00 0.00 0.00 0.00 0.00 0.00 0.00 0.00 0.00 0.00 0.00 0.00 0.00 0.00 0.00 0.00 0.00 0.00 0.00 0.00 0.00 0.00 0.00 0.00
0.00 0.00 0.00 0.00 0.00 0.00 0.00 0.00 0.00 0.00 0.00 0.00 0.00 0.00 0.00 0.00 0.00 0.00 0.00 0.00 0.00 0.00 0.00 0.00 0.00 0.00 0.00 0.00 0.00 0.00 0.00 0.00 0.00 0.00 0.00 0.00 0.00 0.00
0.00 0.00 0.00 0.00 0.00 0.00 0.00 0.00 0.00 0.00 0.00 0.00 0.00 0.00 0.00 0.00 0.00 0.00 0.00 0.00 0.00 0.00 0.00 0.00 0.00 0.00 0.00 0.00 0.00 0.00 0.00 0.00 0.00 0.00 0.00 0.00 0.00 0.00
0.00 0.00 0.00 0.00 0.00 0.00 0.00 0.00 0.00 0.00 0.00 0.00 0.00 0.00 0.00 0.00 0.00 0.00 0.00 0.00 0.00 0.00 0.00 0.00 0.00 0.00 0.00 0.00 0.00 0.00 0.00 0.00 0.00 0.00 0.00 0.00 0.00 0.00
0.00 0.00 0.00 0.00 0.00 0.00 0.00 0.00 0.00 0.00 0.00 0.00 0.00 0.00 0.00 0.00 0.00 0.00 0.00 0.00 0.00 0.00 0.00 0.00 0.00 0.00 0.00 0.00 0.00 0.00 0.00 0.00 0.00 0.00 0.00 0.00 0.00 0.01
0.00 0.00 0.00 0.00 0.00 0.00 0.00 0.00 0.00 0.00 0.00 0.00 0.00 0.00 0.00 0.00 0.00 0.00 0.00 0.00 0.00 0.00 0.00 0.00 0.00 0.00 0.00 0.00 0.00 0.00 0.00 0.00 0.00 0.00 0.00 0.00 0.00 0.00

GFSNE_prec_precacc6_108.txt.gz
Total_Precipitation_Accumulation
0.31 0.30 0.25 0.13 0.07 0.05 0.01 0.00 0.00 0.00 0.00 0.00 0.00 0.00 0.00 0.00 0.00 0.00 0.00 0.00 0.00 0.00 0.00 0.00 0.00 0.00 0.00 0.00 0.00 0.00 0.00 0.00 0.00 0.00 0.00 0.00 0.00 0.00
0.28 0.27 0.24 0.17 0.11 0.07 0.03 0.01 0.00 0.01 0.01 0.00 0.00 0.00 0.01 0.00 0.01 0.00 0.00 0.00 0.00 0.00 0.00 0.00 0.00 0.00 0.00 0.00 0.00 0.00 0.00 0.00 0.00 0.00 0.00 0.00 0.00 0.00
0.32 0.27 0.28 0.21 0.16 0.07 0.05 0.03 0.02 0.01 0.00 0.00 0.00 0.00 0.02 0.01 0.02 0.02 0.02 0.02 0.00 0.01 0.01 0.01 0.00 0.00 0.00 0.01 0.00 0.00 0.00 0.00 0.00 0.00 0.00 0.00 0.00 0.00
0.23 0.25 0.26 0.26 0.18 0.11 0.07 0.03 0.01 0.00 0.00 0.00 0.00 0.00 0.00 0.00 0.01 0.01 0.00 0.00 0.00 0.00 0.01 0.01 0.02 0.01 0.01 0.00 0.00 0.00 0.00 0.00 0.00 0.00 0.00 0.00 0.00 0.00
0.12 0.12 0.15 0.16 0.12 0.08 0.04 0.02 0.01 0.00 0.00 0.00 0.00 0.00 0.00 0.00 0.00 0.00 0.00 0.00 0.00 0.00 0.00 0.00 0.00 0.01 0.01 0.01 0.00 0.00 0.01 0.01 0.02 0.02 0.02 0.02 0.02 0.03
0.03 0.04 0.10 0.15 0.11 0.08 0.05 0.02 0.02 0.01 0.00 0.00 0.00 0.00 0.00 0.00 0.00 0.00 0.00 0.00 0.00 0.00 0.01 0.02 0.04 0.04 0.04 0.07 0.12 0.13 0.14 0.14 0.11 0.10 0.11 0.13 0.16 0.20
0.05 0.07 0.08 0.09 0.16 0.16 0.11 0.06 0.05 0.05 0.02 0.01 0.00 0.00 0.00 0.00 0.00 0.01 0.02 0.03 0.07 0.08 0.15 0.20 0.23 0.24 0.30 0.24 0.16 0.10 0.05 0.07 0.10 0.12 0.15 0.19 0.22 0.22
0.10 0.07 0.11 0.19 0.16 0.13 0.08 0.04 0.03 0.05 0.03 0.01 0.00 0.00 0.00 0.02 0.01 0.02 0.02 0.02 0.03 0.02 0.04 0.04 0.04 0.03 0.02 0.03 0.04 0.05 0.06 0.08 0.09 0.08 0.06 0.05 0.05 0.06
0.07 0.11 0.13 0.09 0.09 0.03 0.02 0.01 0.01 0.01 0.01 0.00 0.00 0.00 0.00 0.01 0.02 0.05 0.08 0.10 0.10 0.06 0.05 0.09 0.11 0.11 0.10 0.08 0.08 0.03 0.01 0.01 0.01 0.01 0.01 0.01 0.01 0.01
0.05 0.05 0.05 0.06 0.08 0.07 0.03 0.03 0.03 0.03 0.04 0.03 0.03 0.04 0.06 0.08 0.11 0.12 0.10 0.10 0.12 0.12 0.13 0.16 0.14 0.11 0.06 0.03 0.03 0.01 0.00 0.00 0.00 0.00 0.00 0.00 0.00 0.00
0.04 0.05 0.06 0.04 0.09 0.08 0.05 0.08 0.11 0.13 0.19 0.19 0.17 0.18 0.18 0.17 0.15 0.14 0.12 0.12 0.12 0.08 0.04 0.02 0.02 0.01 0.01 0.00 0.00 0.00 0.00 0.00 0.00 0.00 0.00 0.00 0.00 0.00
0.07 0.09 0.15 0.13 0.22 0.22 0.22 0.25 0.31 0.30 0.27 0.26 0.23 0.18 0.15 0.11 0.08 0.06 0.06 0.07 0.06 0.02 0.00 0.00 0.00 0.00 0.00 0.00 0.00 0.00 0.00 0.00 0.00 0.00 0.00 0.00 0.00 0.00
0.27 0.27 0.30 0.33 0.26 0.25 0.24 0.25 0.28 0.25 0.22 0.16 0.15 0.13 0.11 0.09 0.06 0.04 0.02 0.01 0.00 0.00 0.00 0.00 0.00 0.00 0.00 0.00 0.00 0.00 0.00 0.00 0.00 0.00 0.00 0.00 0.00 0.00
0.29 0.27 0.21 0.16 0.15 0.15 0.15 0.17 0.18 0.15 0.11 0.07 0.06 0.04 0.03 0.01 0.00 0.00 0.00 0.00 0.00 0.00 0.00 0.00 0.00 0.00 0.00 0.01 0.00 0.00 0.00 0.00 0.00 0.00 0.00 0.00 0.00 0.00
0.21 0.20 0.19 0.15 0.11 0.07 0.05 0.05 0.04 0.03 0.02 0.01 0.00 0.00 0.00 0.00 0.00 0.00 0.00 0.00 0.00 0.00 0.00 0.00 0.00 0.00 0.00 0.00 0.00 0.00 0.00 0.00 0.00 0.00 0.00 0.00 0.00 0.00
0.07 0.05 0.03 0.03 0.03 0.02 0.01 0.01 0.00 0.00 0.00 0.00 0.00 0.00 0.00 0.00 0.00 0.00 0.00 0.00 0.00 0.00 0.00 0.00 0.00 0.00 0.00 0.00 0.00 0.00 0.00 0.00 0.00 0.00 0.00 0.00 0.00 0.00
0.14 0.11 0.08 0.05 0.03 0.01 0.00 0.00 0.00 0.00 0.00 0.00 0.00 0.00 0.00 0.00 0.00 0.00 0.00 0.00 0.00 0.00 0.00 0.00 0.00 0.00 0.00 0.00 0.00 0.00 0.00 0.00 0.00 0.00 0.00 0.00 0.00 0.00
0.05 0.06 0.07 0.06 0.05 0.03 0.02 0.01 0.00 0.00 0.00 0.00 0.00 0.00 0.00 0.00 0.00 0.00 0.00 0.00 0.00 0.00 0.00 0.00 0.00 0.00 0.00 0.00 0.00 0.00 0.00 0.00 0.00 0.00 0.00 0.00 0.00 0.00
0.00 0.00 0.00 0.00 0.00 0.00 0.00 0.00 0.00 0.00 0.00 0.00 0.00 0.00 0.00 0.00 0.00 0.00 0.00 0.00 0.00 0.00 0.00 0.00 0.00 0.00 0.00 0.00 0.00 0.00 0.00 0.00 0.00 0.00 0.00 0.00 0.00 0.00
0.00 0.00 0.00 0.00 0.00 0.00 0.00 0.00 0.00 0.00 0.00 0.00 0.00 0.00 0.00 0.00 0.00 0.00 0.00 0.00 0.00 0.00 0.00 0.00 0.00 0.00 0.00 0.00 0.00 0.00 0.00 0.00 0.00 0.00 0.00 0.00 0.00 0.00
0.00 0.00 0.00 0.00 0.00 0.00 0.00 0.00 0.00 0.00 0.00 0.00 0.00 0.00 0.00 0.00 0.00 0.00 0.00 0.00 0.00 0.00 0.00 0.00 0.00 0.00 0.00 0.00 0.00 0.00 0.00 0.00 0.00 0.00 0.00 0.00 0.00 0.00
0.00 0.00 0.00 0.00 0.00 0.00 0.00 0.00 0.00 0.00 0.00 0.00 0.00 0.00 0.00 0.00 0.00 0.00 0.00 0.00 0.00 0.00 0.00 0.00 0.00 0.00 0.00 0.00 0.00 0.00 0.00 0.00 0.00 0.00 0.00 0.00 0.01 0.00
0.00 0.00 0.00 0.00 0.00 0.00 0.00 0.00 0.00 0.00 0.00 0.00 0.00 0.00 0.00 0.00 0.00 0.00 0.00 0.00 0.00 0.00 0.00 0.00 0.00 0.00 0.00 0.00 0.00 0.00 0.00 0.00 0.00 0.00 0.00 0.00 0.00 0.01

GFSNE_prec_precacc6_111.txt.gz
Total_Precipitation_Accumulation
0.40 0.52 0.43 0.26 0.16 0.09 0.02 0.01 0.01 0.03 0.01 0.01 0.00 0.00 0.00 0.00 0.00 0.00 0.00 0.00 0.00 0.00 0.00 0.00 0.00 0.00 0.00 0.00 0.00 0.00 0.00 0.00 0.00 0.00 0.00 0.02 0.02 0.09
0.23 0.27 0.34 0.29 0.21 0.15 0.09 0.04 0.02 0.02 0.01 0.00 0.00 0.00 0.00 0.00 0.00 0.00 0.00 0.00 0.00 0.00 0.00 0.00 0.00 0.00 0.00 0.00 0.00 0.00 0.00 0.00 0.00 0.00 0.00 0.00 0.00 0.00
0.31 0.43 0.41 0.27 0.23 0.20 0.17 0.12 0.07 0.04 0.02 0.01 0.00 0.01 0.01 0.01 0.02 0.02 0.02 0.02 0.01 0.01 0.01 0.01 0.01 0.01 0.01 0.01 0.00 0.00 0.00 0.00 0.00 0.00 0.00 0.00 0.00 0.00
0.22 0.32 0.49 0.50 0.38 0.28 0.25 0.17 0.12 0.09 0.06 0.03 0.01 0.00 0.00 0.01 0.02 0.01 0.01 0.01 0.01 0.04 0.04 0.04 0.04 0.03 0.01 0.00 0.00 0.00 0.00 0.00 0.00 0.00 0.00 0.00 0.00 0.01
0.10 0.15 0.27 0.40 0.49 0.38 0.26 0.19 0.13 0.11 0.07 0.04 0.02 0.01 0.01 0.00 0.00 0.00 0.00 0.00 0.00 0.02 0.01 0.00 0.00 0.00 0.00 0.00 0.00 0.00 0.01 0.03 0.09 0.13 0.11 0.08 0.08 0.08
0.05 0.15 0.11 0.17 0.30 0.35 0.31 0.17 0.13 0.10 0.05 0.05 0.05 0.04 0.02 0.00 0.01 0.01 0.00 0.00 0.00 0.00 0.00 0.00 0.00 0.01 0.01 0.04 0.08 0.12 0.15 0.18 0.16 0.10 0.07 0.07 0.08 0.12
0.01 0.04 0.08 0.13 0.19 0.27 0.32 0.24 0.16 0.12 0.09 0.06 0.03 0.02 0.00 0.00 0.01 0.00 0.00 0.00 0.02 0.02 0.07 0.11 0.15 0.18 0.23 0.22 0.16 0.12 0.08 0.06 0.04 0.03 0.04 0.09 0.10 0.09
0.08 0.05 0.08 0.20 0.19 0.22 0.26 0.25 0.24 0.22 0.18 0.12 0.07 0.05 0.02 0.01 0.01 0.00 0.00 0.01 0.02 0.01 0.03 0.06 0.06 0.04 0.03 0.02 0.03 0.02 0.00 0.00 0.00 0.00 0.00 0.00 0.00 0.00
0.08 0.13 0.13 0.09 0.13 0.10 0.16 0.16 0.16 0.12 0.07 0.07 0.07 0.03 0.02 0.02 0.01 0.01 0.01 0.01 0.02 0.03 0.06 0.07 0.06 0.07 0.07 0.06 0.06 0.02 0.01 0.00 0.00 0.00 0.00 0.00 0.00 0.00
0.05 0.07 0.07 0.07 0.10 0.09 0.03 0.08 0.10 0.09 0.05 0.03 0.01 0.00 0.01 0.02 0.02 0.03 0.04 0.06 0.08 0.09 0.12 0.17 0.17 0.16 0.12 0.10 0.09 0.03 0.02 0.00 0.00 0.00 0.00 0.00 0.00 0.00
0.06 0.06 0.09 0.08 0.12 0.11 0.07 0.10 0.11 0.10 0.11 0.08 0.06 0.06 0.05 0.05 0.04 0.05 0.09 0.11 0.13 0.12 0.12 0.14 0.13 0.10 0.07 0.04 0.03 0.02 0.01 0.00 0.00 0.00 0.00 0.00 0.00 0.00
0.05 0.07 0.15 0.12 0.17 0.12 0.06 0.05 0.09 0.11 0.09 0.07 0.08 0.09 0.11 0.11 0.11 0.07 0.07 0.08 0.11 0.13 0.12 0.13 0.14 0.12 0.08 0.03 0.00 0.00 0.00 0.00 0.00 0.00 0.00 0.00 0.00 0.00
0.15 0.09 0.12 0.18 0.15 0.15 0.14 0.12 0.20 0.20 0.24 0.21 0.21 0.18 0.15 0.12 0.10 0.08 0.07 0.07 0.07 0.07 0.04 0.02 0.02 0.01 0.00 0.00 0.00 0.00 0.00 0.00 0.00 0.00 0.00 0.00 0.00 0.00
0.28 0.31 0.37 0.31 0.17 0.15 0.18 0.25 0.29 0.22 0.15 0.12 0.11 0.09 0.07 0.05 0.03 0.02 0.02 0.02 0.01 0.01 0.00 0.00 0.00 0.00 0.00 0.00 0.00 0.00 0.00 0.00 0.00 0.00 0.00 0.00 0.00 0.00
0.34 0.33 0.33 0.36 0.37 0.31 0.23 0.18 0.14 0.09 0.07 0.06 0.05 0.04 0.02 0.00 0.00 0.00 0.00 0.00 0.00 0.00 0.00 0.00 0.00 0.00 0.00 0.00 0.00 0.00 0.00 0.00 0.00 0.00 0.00 0.00 0.00 0.00
0.16 0.15 0.14 0.14 0.15 0.17 0.16 0.14 0.09 0.05 0.02 0.01 0.00 0.00 0.00 0.00 0.00 0.00 0.00 0.00 0.00 0.00 0.00 0.00 0.00 0.00 0.00 0.00 0.00 0.00 0.00 0.00 0.00 0.00 0.00 0.00 0.00 0.00
0.16 0.15 0.14 0.11 0.08 0.06 0.05 0.04 0.03 0.02 0.01 0.00 0.00 0.00 0.00 0.00 0.00 0.00 0.00 0.00 0.00 0.00 0.00 0.00 0.00 0.00 0.00 0.00 0.00 0.00 0.00 0.00 0.00 0.00 0.00 0.00 0.00 0.00
0.05 0.08 0.10 0.10 0.10 0.10 0.08 0.07 0.05 0.03 0.02 0.01 0.01 0.00 0.00 0.00 0.00 0.00 0.01 0.01 0.01 0.01 0.01 0.00 0.00 0.00 0.00 0.00 0.00 0.00 0.00 0.00 0.00 0.00 0.00 0.00 0.00 0.00
0.00 0.00 0.00 0.00 0.00 0.00 0.00 0.00 0.00 0.00 0.00 0.00 0.00 0.00 0.00 0.00 0.00 0.00 0.00 0.00 0.00 0.00 0.00 0.00 0.00 0.00 0.00 0.00 0.00 0.00 0.00 0.00 0.00 0.00 0.00 0.00 0.00 0.00
0.00 0.00 0.00 0.00 0.00 0.00 0.00 0.00 0.00 0.00 0.00 0.00 0.00 0.00 0.00 0.00 0.00 0.00 0.00 0.00 0.00 0.00 0.00 0.00 0.00 0.00 0.00 0.00 0.00 0.00 0.00 0.00 0.00 0.00 0.00 0.00 0.00 0.00
0.00 0.00 0.00 0.00 0.00 0.00 0.00 0.00 0.00 0.00 0.00 0.00 0.00 0.00 0.00 0.00 0.00 0.00 0.00 0.00 0.00 0.00 0.00 0.00 0.00 0.00 0.00 0.00 0.00 0.00 0.00 0.00 0.00 0.00 0.00 0.00 0.00 0.00
0.00 0.00 0.00 0.00 0.00 0.00 0.00 0.00 0.00 0.00 0.00 0.00 0.00 0.00 0.00 0.00 0.00 0.00 0.00 0.00 0.00 0.00 0.00 0.00 0.00 0.00 0.00 0.00 0.00 0.00 0.00 0.00 0.00 0.00 0.00 0.00 0.01 0.01
0.00 0.00 0.00 0.00 0.00 0.00 0.00 0.00 0.00 0.00 0.00 0.00 0.00 0.00 0.00 0.00 0.00 0.00 0.00 0.00 0.00 0.00 0.00 0.00 0.00 0.00 0.00 0.00 0.00 0.00 0.00 0.00 0.00 0.00 0.00 0.00 0.00 0.01

GFSNE_prec_precacc6_114.txt.gz
Total_Precipitation_Accumulation
0.29 0.44 0.42 0.33 0.22 0.17 0.12 0.06 0.06 0.07 0.03 0.01 0.01 0.00 0.00 0.00 0.00 0.00 0.00 0.00 0.00 0.00 0.00 0.00 0.00 0.00 0.00 0.00 0.00 0.00 0.00 0.00 0.00 0.00 0.01 0.04 0.04 0.11
0.10 0.16 0.21 0.24 0.23 0.20 0.18 0.13 0.10 0.06 0.04 0.02 0.02 0.01 0.00 0.00 0.00 0.00 0.00 0.00 0.00 0.00 0.00 0.00 0.00 0.00 0.00 0.00 0.00 0.00 0.00 0.00 0.00 0.00 0.00 0.00 0.00 0.00
0.07 0.26 0.26 0.15 0.16 0.19 0.20 0.16 0.10 0.08 0.06 0.04 0.02 0.02 0.01 0.01 0.00 0.00 0.01 0.01 0.01 0.01 0.01 0.01 0.01 0.01 0.00 0.00 0.00 0.00 0.00 0.00 0.00 0.00 0.00 0.00 0.00 0.00
0.03 0.13 0.36 0.39 0.33 0.28 0.26 0.21 0.15 0.14 0.15 0.12 0.07 0.03 0.01 0.01 0.01 0.01 0.01 0.01 0.02 0.04 0.04 0.03 0.02 0.02 0.01 0.00 0.00 0.00 0.00 0.00 0.00 0.00 0.00 0.00 0.00 0.01
0.04 0.09 0.20 0.33 0.51 0.45 0.35 0.28 0.24 0.22 0.21 0.19 0.12 0.06 0.02 0.00 0.00 0.00 0.01 0.02 0.03 0.03 0.01 0.00 0.00 0.00 0.00 0.00 0.00 0.00 0.00 0.03 0.07 0.12 0.14 0.14 0.14 0.12
0.04 0.15 0.14 0.16 0.28 0.36 0.38 0.32 0.30 0.28 0.21 0.18 0.16 0.10 0.05 0.03 0.03 0.02 0.02 0.03 0.03 0.01 0.01 0.00 0.00 0.00 0.00 0.00 0.01 0.02 0.03 0.06 0.09 0.08 0.06 0.03 0.01 0.01
0.00 0.03 0.11 0.15 0.15 0.19 0.33 0.35 0.29 0.25 0.23 0.18 0.14 0.10 0.05 0.04 0.03 0.01 0.03 0.06 0.08 0.05 0.02 0.01 0.02 0.02 0.03 0.07 0.07 0.08 0.10 0.10 0.07 0.04 0.02 0.01 0.00 0.00
0.03 0.02 0.02 0.13 0.22 0.27 0.30 0.33 0.38 0.38 0.30 0.21 0.16 0.14 0.09 0.08 0.07 0.07 0.04 0.04 0.04 0.02 0.02 0.05 0.07 0.05 0.03 0.02 0.04 0.02 0.03 0.03 0.02 0.02 0.01 0.00 0.00 0.00
0.05 0.07 0.08 0.07 0.10 0.16 0.34 0.33 0.29 0.34 0.33 0.25 0.24 0.16 0.13 0.11 0.12 0.11 0.08 0.05 0.02 0.02 0.05 0.07 0.07 0.06 0.06 0.07 0.07 0.03 0.02 0.02 0.02 0.01 0.01 0.01 0.00 0.00
0.05 0.08 0.08 0.07 0.11 0.12 0.11 0.18 0.24 0.24 0.24 0.21 0.13 0.08 0.06 0.06 0.08 0.07 0.06 0.07 0.09 0.07 0.08 0.10 0.12 0.13 0.14 0.13 0.15 0.07 0.03 0.02 0.01 0.01 0.00 0.00 0.00 0.00
0.05 0.06 0.09 0.08 0.12 0.12 0.08 0.12 0.18 0.17 0.20 0.24 0.24 0.21 0.14 0.09 0.06 0.03 0.03 0.03 0.05 0.08 0.13 0.16 0.16 0.14 0.12 0.09 0.09 0.09 0.03 0.01 0.01 0.00 0.00 0.00 0.00 0.00
0.02 0.05 0.14 0.11 0.15 0.09 0.05 0.04 0.08 0.12 0.13 0.11 0.12 0.12 0.09 0.07 0.08 0.06 0.04 0.06 0.10 0.15 0.17 0.18 0.19 0.20 0.19 0.14 0.07 0.03 0.01 0.00 0.00 0.00 0.00 0.00 0.00 0.00
0.19 0.13 0.13 0.17 0.14 0.14 0.12 0.08 0.13 0.12 0.14 0.12 0.12 0.13 0.11 0.11 0.13 0.14 0.13 0.15 0.17 0.18 0.17 0.13 0.11 0.11 0.09 0.07 0.03 0.00 0.00 0.00 0.00 0.00 0.00 0.00 0.00 0.00
0.35 0.43 0.51 0.42 0.23 0.16 0.14 0.19 0.22 0.15 0.08 0.08 0.07 0.08 0.09 0.09 0.09 0.10 0.10 0.10 0.10 0.07 0.06 0.06 0.07 0.07 0.06 0.04 0.02 0.00 0.00 0.00 0.00 0.00 0.00 0.00 0.00 0.00
0.46 0.42 0.43 0.46 0.44 0.37 0.33 0.27 0.21 0.17 0.17 0.17 0.18 0.17 0.11 0.05 0.03 0.02 0.01 0.01 0.01 0.01 0.00 0.00 0.00 0.00 0.00 0.00 0.00 0.00 0.00 0.00 0.00 0.00 0.00 0.00 0.00 0.00
0.35 0.34 0.31 0.28 0.28 0.31 0.31 0.28 0.25 0.21 0.16 0.13 0.09 0.08 0.05 0.04 0.03 0.02 0.01 0.01 0.01 0.01 0.00 0.00 0.00 0.00 0.00 0.00 0.00 0.00 0.00 0.00 0.00 0.00 0.00 0.00 0.00 0.00
0.11 0.13 0.14 0.15 0.13 0.12 0.11 0.12 0.13 0.13 0.13 0.12 0.10 0.07 0.05 0.03 0.02 0.02 0.02 0.02 0.01 0.01 0.01 0.00 0.00 0.00 0.00 0.00 0.00 0.00 0.00 0.00 0.00 0.00 0.00 0.00 0.00 0.00
0.02 0.03 0.04 0.06 0.08 0.10 0.10 0.10 0.09 0.08 0.08 0.06 0.05 0.05 0.04 0.03 0.02 0.02 0.02 0.02 0.02 0.01 0.01 0.00 0.00 0.00 0.00 0.00 0.00 0.00 0.00 0.00 0.00 0.00 0.00 0.00 0.00 0.00
0.00 0.00 0.00 0.01 0.01 0.01 0.01 0.01 0.01 0.01 0.01 0.01 0.01 0.00 0.00 0.00 0.00 0.00 0.00 0.00 0.00 0.00 0.00 0.00 0.00 0.00 0.00 0.00 0.00 0.00 0.00 0.00 0.00 0.00 0.00 0.00 0.00 0.00
0.00 0.00 0.00 0.00 0.00 0.00 0.00 0.00 0.00 0.00 0.00 0.00 0.00 0.00 0.00 0.00 0.00 0.00 0.00 0.00 0.00 0.00 0.00 0.00 0.00 0.00 0.00 0.00 0.00 0.00 0.00 0.00 0.00 0.00 0.00 0.00 0.00 0.00
0.00 0.00 0.00 0.00 0.00 0.00 0.00 0.00 0.00 0.00 0.00 0.00 0.00 0.00 0.00 0.00 0.00 0.00 0.00 0.00 0.00 0.00 0.00 0.00 0.00 0.00 0.00 0.00 0.00 0.00 0.00 0.00 0.00 0.00 0.00 0.00 0.00 0.00
0.00 0.00 0.00 0.00 0.00 0.00 0.00 0.00 0.00 0.00 0.00 0.00 0.00 0.00 0.00 0.00 0.00 0.00 0.00 0.00 0.00 0.00 0.00 0.00 0.00 0.00 0.00 0.00 0.00 0.00 0.00 0.00 0.00 0.00 0.00 0.00 0.01 0.01
0.00 0.00 0.00 0.00 0.00 0.00 0.00 0.00 0.00 0.00 0.00 0.00 0.00 0.00 0.00 0.00 0.00 0.00 0.00 0.00 0.00 0.00 0.00 0.00 0.00 0.00 0.00 0.00 0.00 0.00 0.00 0.00 0.00 0.00 0.00 0.00 0.00 0.00

GFSNE_prec_precacc6_117.txt.gz
Total_Precipitation_Accumulation
0.04 0.08 0.16 0.16 0.14 0.14 0.16 0.17 0.19 0.18 0.05 0.01 0.02 0.02 0.01 0.01 0.00 0.00 0.00 0.00 0.00 0.00 0.00 0.00 0.00 0.00 0.00 0.00 0.00 0.00 0.00 0.00 0.00 0.00 0.00 0.02 0.02 0.03
0.01 0.02 0.04 0.09 0.14 0.16 0.16 0.17 0.19 0.19 0.14 0.03 0.04 0.03 0.02 0.01 0.00 0.00 0.00 0.00 0.00 0.00 0.00 0.00 0.00 0.00 0.00 0.00 0.00 0.00 0.00 0.00 0.00 0.00 0.00 0.00 0.00 0.00
0.01 0.02 0.06 0.05 0.08 0.07 0.08 0.10 0.11 0.14 0.15 0.09 0.05 0.05 0.04 0.02 0.01 0.00 0.00 0.00 0.00 0.00 0.00 0.00 0.00 0.00 0.00 0.00 0.00 0.00 0.00 0.00 0.00 0.00 0.00 0.00 0.00 0.00
0.00 0.02 0.10 0.13 0.14 0.11 0.09 0.09 0.09 0.10 0.14 0.15 0.13 0.11 0.05 0.02 0.01 0.00 0.00 0.01 0.01 0.00 0.00 0.00 0.00 0.00 0.00 0.00 0.00 0.00 0.00 0.00 0.00 0.00 0.00 0.00 0.00 0.01
0.00 0.01 0.03 0.07 0.13 0.16 0.16 0.16 0.14 0.13 0.17 0.21 0.17 0.13 0.10 0.04 0.02 0.01 0.01 0.02 0.03 0.02 0.00 0.00 0.00 0.00 0.00 0.00 0.00 0.00 0.00 0.00 0.00 0.00 0.04 0.08 0.09 0.09
0.01 0.03 0.06 0.05 0.06 0.07 0.14 0.22 0.24 0.23 0.21 0.22 0.22 0.16 0.10 0.07 0.07 0.03 0.03 0.04 0.04 0.02 0.02 0.01 0.00 0.00 0.00 0.00 0.00 0.00 0.00 0.00 0.01 0.03 0.04 0.04 0.04 0.04
0.00 0.01 0.06 0.09 0.09 0.07 0.13 0.20 0.23 0.22 0.22 0.22 0.25 0.22 0.13 0.07 0.05 0.04 0.10 0.09 0.10 0.06 0.04 0.03 0.01 0.01 0.01 0.00 0.00 0.01 0.02 0.04 0.05 0.05 0.04 0.04 0.04 0.03
0.01 0.00 0.01 0.08 0.19 0.20 0.15 0.16 0.22 0.26 0.22 0.18 0.18 0.20 0.16 0.13 0.11 0.14 0.14 0.14 0.09 0.04 0.03 0.04 0.04 0.04 0.03 0.03 0.04 0.03 0.03 0.03 0.03 0.03 0.03 0.02 0.02 0.01
0.05 0.03 0.02 0.05 0.06 0.09 0.24 0.28 0.23 0.30 0.34 0.28 0.27 0.21 0.19 0.17 0.22 0.24 0.20 0.14 0.06 0.03 0.05 0.10 0.10 0.09 0.08 0.09 0.09 0.04 0.02 0.02 0.03 0.03 0.03 0.03 0.02 0.00
0.09 0.05 0.05 0.05 0.09 0.10 0.10 0.13 0.19 0.23 0.29 0.28 0.25 0.20 0.13 0.14 0.21 0.18 0.17 0.22 0.22 0.15 0.11 0.12 0.09 0.08 0.08 0.07 0.11 0.06 0.03 0.03 0.02 0.02 0.02 0.01 0.00 0.00
0.16 0.10 0.08 0.04 0.11 0.13 0.08 0.10 0.17 0.19 0.30 0.39 0.38 0.36 0.33 0.29 0.27 0.27 0.29 0.26 0.19 0.12 0.11 0.11 0.11 0.11 0.11 0.10 0.11 0.12 0.05 0.03 0.01 0.01 0.00 0.00 0.00 0.00
0.21 0.12 0.12 0.09 0.16 0.11 0.06 0.05 0.09 0.13 0.12 0.14 0.17 0.19 0.22 0.24 0.26 0.22 0.24 0.28 0.27 0.24 0.18 0.14 0.13 0.14 0.16 0.16 0.11 0.08 0.04 0.03 0.02 0.01 0.00 0.00 0.00 0.00
0.37 0.33 0.24 0.17 0.11 0.13 0.12 0.08 0.14 0.13 0.12 0.09 0.10 0.11 0.12 0.14 0.18 0.20 0.20 0.23 0.25 0.24 0.28 0.23 0.19 0.18 0.16 0.13 0.11 0.08 0.04 0.02 0.01 0.00 0.00 0.00 0.00 0.00
0.42 0.42 0.45 0.37 0.27 0.24 0.21 0.24 0.23 0.16 0.08 0.07 0.08 0.08 0.06 0.08 0.10 0.14 0.19 0.22 0.24 0.24 0.26 0.24 0.20 0.22 0.21 0.20 0.16 0.12 0.07 0.02 0.00 0.00 0.00 0.00 0.00 0.00
0.44 0.46 0.46 0.42 0.35 0.34 0.38 0.39 0.35 0.31 0.29 0.27 0.26 0.22 0.14 0.09 0.07 0.07 0.08 0.11 0.15 0.20 0.25 0.28 0.27 0.25 0.19 0.13 0.09 0.06 0.02 0.00 0.00 0.00 0.00 0.00 0.00 0.00
0.28 0.30 0.31 0.31 0.31 0.32 0.32 0.33 0.36 0.38 0.36 0.33 0.29 0.25 0.18 0.13 0.12 0.10 0.09 0.08 0.07 0.08 0.07 0.07 0.07 0.07 0.06 0.04 0.02 0.01 0.00 0.00 0.00 0.00 0.00 0.00 0.00 0.00
0.07 0.09 0.11 0.14 0.15 0.18 0.20 0.22 0.24 0.25 0.25 0.25 0.22 0.19 0.15 0.11 0.09 0.07 0.07 0.07 0.07 0.07 0.06 0.04 0.02 0.01 0.01 0.00 0.01 0.00 0.00 0.00 0.00 0.00 0.00 0.00 0.00 0.00
0.00 0.01 0.02 0.03 0.05 0.08 0.10 0.12 0.13 0.13 0.13 0.12 0.11 0.10 0.09 0.08 0.06 0.03 0.02 0.02 0.02 0.01 0.01 0.01 0.00 0.00 0.00 0.00 0.00 0.00 0.00 0.00 0.00 0.00 0.00 0.00 0.00 0.00
0.00 0.00 0.00 0.00 0.00 0.00 0.01 0.02 0.03 0.03 0.04 0.04 0.03 0.02 0.01 0.00 0.00 0.00 0.00 0.00 0.00 0.00 0.00 0.00 0.00 0.00 0.00 0.00 0.00 0.00 0.00 0.00 0.00 0.00 0.00 0.00 0.00 0.00
0.00 0.00 0.00 0.00 0.00 0.00 0.00 0.00 0.00 0.00 0.00 0.00 0.00 0.00 0.00 0.00 0.00 0.00 0.00 0.00 0.00 0.00 0.00 0.00 0.00 0.00 0.00 0.00 0.00 0.00 0.00 0.00 0.00 0.00 0.00 0.00 0.00 0.00
0.00 0.00 0.00 0.00 0.00 0.00 0.00 0.00 0.00 0.00 0.00 0.00 0.00 0.00 0.00 0.00 0.00 0.00 0.00 0.00 0.00 0.00 0.00 0.00 0.00 0.00 0.00 0.00 0.00 0.00 0.00 0.00 0.00 0.00 0.00 0.00 0.00 0.00
0.00 0.00 0.00 0.00 0.00 0.00 0.00 0.00 0.00 0.00 0.00 0.00 0.00 0.00 0.00 0.00 0.00 0.00 0.00 0.00 0.00 0.00 0.00 0.00 0.00 0.00 0.00 0.00 0.00 0.00 0.00 0.00 0.00 0.00 0.00 0.00 0.00 0.00
0.00 0.00 0.00 0.00 0.00 0.00 0.00 0.00 0.00 0.00 0.00 0.00 0.00 0.00 0.00 0.00 0.00 0.00 0.00 0.00 0.00 0.00 0.00 0.00 0.00 0.00 0.00 0.00 0.00 0.00 0.00 0.00 0.00 0.00 0.00 0.00 0.00 0.00